Warning: Javascript must be enabled to use all the features on this page!


Page Loading - Please Wait...

* We've detected you're using a mobile device. Find our Next Generation Station Page here.
Click to hideNews Bulletins

Peak Streamflow for the Nation

USGS 10301500 WALKER RV NR WABUSKA, NV

Lyon County, Nevada
Hydrologic Unit Code 16050303
Latitude  39°09'08.86", Longitude 119°05'56" NAD83
Drainage area 2,600  square miles
Gage datum 4,300.00 feet above NGVD29
Output formats
Table
Graph
Tab-separated file
peakfq (watstore) format
Reselect output format
Water
Year
Date Gage
Height
(feet)
Stream-
flow
(cfs)
1903 1903-06-11   9641,6
1904 1904-05-27   1,5601,6
1905 1905-06-15   6131,6
1906 1906-07-10   3,2801,6
1907 1907-07-06   2,8101,6
1920 1920-06-04   2591,6
1921 1921-06-17   7906
1922 1922-06-08   2,2206
1923 1923-05-22   8706
1924 1923-10-01   2901,6
1925 1925-07-21   3156
1926 1926-06-12   1191,6
1927 1927-06-20   1,5506
1928 1928-05-28   4081,6
1929 1929-05-24   76.01,6
1930 1930-05-28   82.01,6
1931 1931-06-03   40.01,6
1932 1932-06-29   1,2501,6
1933 1933-06-18   1261,6
1934 1934-06-21   1291,6
1935 1935-06-15   5181,6
1940 1940-06-14   8631,6
1941 1941-06-23   1,8001,6
1942 1942-06-13   2,0001,6
1943 1943-01-25   2,4201,6
1944 1944-04-10   2711,6
1945 1945-06-25   2,6301,6
1946 1946-05-10   1,3001,6
1947 1946-11-26   2971,6
1948 1948-01-28   1141,6
1949 1949-02-20   2001,6
1950 1950-01-27   1351,6
1951 1950-12-11   1,7501,6
1952 1952-06-01   1,8001,6
1953 1953-06-22   9551,6
1954 1954-05-18   1671,6
1955 1955-01-23   2601,6
1956 1956-06-13   2,3501,6
1957 1957-06-07   5351,6
1958 1958-06-24   1,8801,6
1959 1958-10-08 4.226 3166
1960 1960-02-11 3.38 1281,6
1961 1961-08-26 4.02 2626
1962 1962-06-26 5.12 4866
1963 1963-06-23 10.02 2,3206
1964 1964-03-16 3.61 1706
1965 1965-06-14 6.82 9226
1966 1965-11-29 6.24 7426
1967 1967-07-07 9.60 2,1106
1968 1968-02-23 5.69 5326
1969 1969-06-18 10.56 2,6806
1970 1970-06-28 6.96 9356
1971 1971-06-29 7.11 1,0606
1972 1972-03-07 4.80 3216
1973 1973-06-03 8.33 1,4806
1974 1974-06-17 7.22 1,0406
1975 1975-06-14 7.99 1,3506
1976 1976-07-25 4.36 2016
1977 1977-06-21 4.18 1746
1978 1978-04-17 5.14 4156
1979 1979-06-01 6.96 1,0006
1980 1980-07-05 9.72 2,2206
1981 1981-02-21 4.80 2586
1982 1982-07-02 9.47 2,0606
1983 1983-06-21 10.51 2,5006
1984 1984-06-02 8.30 1,5106
1985 1984-10-19 5.47 3306
1986 1986-06-06 10.60 2,7706
1987 1987-03-05 5.52 3466
1988 1988-06-26 5.16 4076
1989 1989-06-06 4.75 1766
1990 1989-11-04 4.172 1046
1991 1991-04-13 4.032 85.06
1992 1992-05-20 4.522 1226
1993 1993-05-27 6.49 2906
1994 1993-10-25 8.85 6166
1995 1995-07-14 10.76 2,5006
1996 1996-05-19 9.39 1,6906
1997 1997-01-06 10.92 2,6006
1998 1998-06-17 9.63 1,8206
1999 1999-06-16 8.96 1,4706
2000 2000-05-27 5.08 2216
2001 2001-05-13 5.02 2016
2002 2002-05-21 4.61 1376
2003 2003-08-23 5.12 2096
2004 2004-06-17 5.142 1456
2005 2005-06-01 9.71 1,7906
2006 2006-05-24 10.86 2,2406
2007 2006-11-02 5.48 2016
2008 2008-05-27 5.40 2776
2009 2009-06-03 5.29 2096
2010 2010-06-30 7.78 7996
2011 2011-07-02 10.452 1,8106
2012 2011-11-02 4.58 2016
2013 2013-05-15 3.50 96.06
2014 2014-05-22 3.71 75.06
2015 2015-07-12 5.29 2266
2016 2016-05-10 4.49 1086
2017 2017-07-06 11.82 2,2606
2018 2018-05-27 9.49 1,3106
2019 2019-06-19 10.55 1,8506
2020 2019-10-03 5.01 2196
2021 2021-05-25 4.31 1356
?
  Peak Gage-Height Qualification Codes.
?
  Peak Streamflow Qualification Codes.